Greenville/Spartanburg, SC

2:08 AM EDT on September 20, 2017 (GMT -0400)
Greenville-Spartanburg International

Weather History for KGSP - March, 2012

Change the Weather History Date:

Sunday, March 4, 2012

  Actual Average Record
Temperature  
Mean Temperature 46 °F 50 °F  
Max Temperature 53 °F 61 °F 82 °F (1976)
Min Temperature 38 °F 39 °F 14 °F (1943)
Degree Days  
Heating Degree Days 19 15  
Month to date heating degree days 32 63  
Since 1 July heating degree days 2157 2512  
Cooling Degree Days 0 0  
Month to date cooling degree days 5 0  
Year to date cooling degree days 5 0  
Moisture  
Dew Point 20 °F    
Average Humidity 37    
Maximum Humidity 52    
Minimum Humidity 21    
Precipitation  
Precipitation 0.00 in 0.14 in 2.27 in (1966)
Month to date precipitation 1.70 0.58  
Year to date precipitation 6.80 8.37  
Snow  
Snow 0.00 in 0.10 in T in (2014)
Month to date snowfall 0.0 0.2  
Since 1 July snowfall 0.0 4.0  
Snow Depth 0.00 in    
Sea Level Pressure  
Sea Level Pressure 29.85 in    
Wind  
Wind Speed 8 mph (WNW)    
Max Wind Speed 24 mph    
Max Gust Speed 32 mph    
Visibility 10 miles    
Events      
T = Trace of Precipitation, MM = Missing Value Source: NWS Daily Summary

Daily Weather History Graph

Daily Weather History Graph

Search for Another Location

Airport or City:

Trip Planner

Search our weather history database for the weather conditions in past years. The results will help you decide how hot, cold, wet, or windy it might be!

Date:

Astronomy

Mar. 04, 2012 Rise Set
Actual Time 6:53 AM EST 6:27 PM EST
Civil Twilight 6:28 AM EST 6:53 PM EST
Nautical Twilight 5:59 AM EST 7:22 PM EST
Astronomical Twilight 5:29 AM EST 7:51 PM EST
Moon 2:46 PM EST (3/4) 4:04 AM EST (3/4)
Length of Visible Light 12h 24m
Length of Day
11h 34m
Waxing Gibbous, 83% of the Moon is Illuminated
Mar 4
Waxing Gibbous
Mar 8
Full
Mar 14
Last Quarter
Mar 22
New
Mar 30
First Quarter

Hourly Weather History & Observations

Time (EST) Temp. Windchill Dew Point Humidity Pressure Visibility Wind Dir Wind Speed Gust Speed Precip Events Conditions
12:53 AM 50.0 °F - 28.0 °F 43% 29.72 in 10.0 mi Calm Calm - N/A   Overcast
1:53 AM 48.9 °F - 28.0 °F 44% 29.71 in 10.0 mi Calm Calm - N/A   Overcast
2:53 AM 48.9 °F - 30.0 °F 48% 29.68 in 10.0 mi NW 4.6 mph - N/A   Overcast
3:53 AM 48.0 °F - 19.9 °F 33% 29.69 in 10.0 mi NNW 4.6 mph - N/A   Clear
4:53 AM 45.0 °F 42.6 °F 21.0 °F 39% 29.71 in 10.0 mi NNW 4.6 mph - N/A   Clear
5:53 AM 43.0 °F - 21.0 °F 42% 29.74 in 10.0 mi Calm Calm - N/A   Clear
6:53 AM 43.0 °F 39.5 °F 21.0 °F 42% 29.77 in 10.0 mi NNW 5.8 mph - N/A   Clear
7:53 AM 43.0 °F 37.7 °F 24.1 °F 47% 29.80 in 10.0 mi North 9.2 mph - N/A   Clear
8:53 AM 46.0 °F 41.4 °F 24.1 °F 42% 29.82 in 10.0 mi NNW 9.2 mph - N/A   Clear
9:53 AM 48.0 °F - 21.9 °F 36% 29.83 in 10.0 mi Variable 4.6 mph - N/A   Partly Cloudy
10:53 AM 50.0 °F - 15.1 °F 25% 29.83 in 10.0 mi West 16.1 mph 23.0 mph N/A   Clear
11:53 AM 50.0 °F - 12.9 °F 23% 29.81 in 10.0 mi NW 10.4 mph 20.7 mph N/A   Clear
12:53 PM 52.0 °F - 14.0 °F 22% 29.82 in 10.0 mi West 19.6 mph 26.5 mph N/A   Clear
1:53 PM 53.1 °F - 16.0 °F 23% 29.83 in 10.0 mi West 18.4 mph 27.6 mph N/A   Clear
2:53 PM 52.0 °F - 12.9 °F 21% 29.86 in 10.0 mi WNW 16.1 mph 26.5 mph N/A   Mostly Cloudy
3:53 PM 48.9 °F - 14.0 °F 25% 29.88 in 10.0 mi WNW 11.5 mph 28.8 mph N/A   Mostly Cloudy
4:53 PM 48.0 °F - 14.0 °F 26% 29.92 in 10.0 mi West 13.8 mph 27.6 mph N/A   Partly Cloudy
5:53 PM 46.0 °F 42.5 °F 16.0 °F 30% 29.94 in 10.0 mi West 6.9 mph 18.4 mph N/A   Partly Cloudy
6:53 PM 44.1 °F 40.1 °F 18.0 °F 35% 29.96 in 10.0 mi West 6.9 mph - N/A   Clear
7:53 PM 43.0 °F 39.5 °F 19.0 °F 38% 29.98 in 10.0 mi WSW 5.8 mph - N/A   Clear
8:53 PM 41.0 °F 36.4 °F 19.9 °F 43% 29.99 in 10.0 mi WSW 6.9 mph - N/A   Clear
9:53 PM 37.9 °F 35.5 °F 21.0 °F 51% 30.01 in 10.0 mi WSW 3.5 mph - N/A   Clear
10:53 PM 39.9 °F 34.5 °F 19.9 °F 45% 30.02 in 10.0 mi SW 8.1 mph - N/A   Clear
11:53 PM 39.2 °F 34.2 °F 19.4 °F 45% 30.00 in 10.0 mi SSW 6.9 mph - N/A   Clear